Silver City, NM

10:54 PM MST on December 15, 2019 (GMT -0700)
Grant County

Weather History for KSVC - October, 2019

Change the Weather History Date:

Thursday, October 17, 2019

  Actual Average (WUND) Record (WUND)
Temperature  
Mean Temperature 57 °F -  
Max Temperature 76 °F - - (-1)
Min Temperature 38 °F - - (-1)
Degree Days  
Heating Degree Days 8    
Growing Degree Days 7 (Base 50)    
Moisture  
Dew Point 37 °F    
Average Humidity 47    
Maximum Humidity 71    
Minimum Humidity 24    
Precipitation  
Precipitation 0.00 in - - ()
Sea Level Pressure  
Sea Level Pressure 30.03 in    
Wind  
Wind Speed 7 mph (NW)    
Max Wind Speed 14 mph    
Max Gust Speed 23 mph    
Visibility 10 miles    
Events      
Averages and records for this station are not official NWS values.
T = Trace of Precipitation, MM = Missing Value Source: NWS Daily Summary

Daily Weather History Graph

Daily Weather History Graph

Search for Another Location

Airport or City:

Astronomy

Oct. 17, 2019 Rise Set
Actual Time 7:17 AM MDT 6:37 PM MDT
Civil Twilight 6:53 AM MDT 7:02 PM MDT
Nautical Twilight 6:24 AM MDT 7:30 PM MDT
Astronomical Twilight 5:55 AM MDT 7:59 PM MDT
Moon 9:21 PM MDT (10/17) 10:43 AM MDT (10/17)
Length of Visible Light 12h 09m
Length of Day
11h 19m
Waning Gibbous, 86% of the Moon is Illuminated
Oct 17
Waning Gibbous
Oct 21
Last Quarter
Oct 27
New
Nov 4
First Quarter
Nov 12
Full

Hourly Weather History & Observations

Time (MDT) Temp. Windchill Dew Point Humidity Pressure Visibility Wind Dir Wind Speed Gust Speed Precip Events Conditions
12:15 AM 49.5 °F - 30.9 °F 49% 30.16 in 10.0 mi NE 8.1 mph - N/A   Clear
12:35 AM 50.7 °F - 31.1 °F 47% 30.16 in 10.0 mi ENE 6.9 mph - N/A   Clear
1:15 AM 48.2 °F - 30.9 °F 51% 30.15 in 10.0 mi NE 6.9 mph - N/A   Clear
1:35 AM 45.0 °F 43.5 °F 31.1 °F 58% 30.15 in 10.0 mi NNW 3.5 mph - N/A   Clear
2:55 AM 44.8 °F 41.6 °F 30.9 °F 58% 30.15 in 10.0 mi North 5.8 mph - N/A   Clear
3:15 AM 44.8 °F 41.6 °F 30.9 °F 58% 30.15 in 10.0 mi NW 5.8 mph - N/A   Clear
3:35 AM 40.1 °F 36.1 °F 30.2 °F 68% 30.14 in 10.0 mi North 5.8 mph - N/A   Clear
3:55 AM 39.4 °F 34.5 °F 30.2 °F 70% 30.14 in 10.0 mi North 6.9 mph - N/A   Clear
4:15 AM 40.5 °F 36.5 °F 30.4 °F 67% 30.14 in 10.0 mi NW 5.8 mph - N/A   Clear
4:35 AM 38.8 °F 33.8 °F 30.0 °F 71% 30.13 in 10.0 mi NNW 6.9 mph - N/A   Clear
4:55 AM 42.6 °F 37.2 °F 30.2 °F 61% 30.13 in 10.0 mi North 9.2 mph - N/A   Clear
5:15 AM 43.9 °F 38.8 °F 30.4 °F 59% 30.12 in 10.0 mi North 9.2 mph - N/A   Clear
5:35 AM 43.9 °F 39.3 °F 30.6 °F 59% 30.12 in 10.0 mi North 8.1 mph - N/A   Clear
5:55 AM 43.0 °F 38.2 °F 30.6 °F 62% 30.12 in 10.0 mi North 8.1 mph - N/A   Clear
6:15 AM 43.9 °F 39.9 °F 30.7 °F 60% 30.12 in 10.0 mi North 6.9 mph - N/A   Clear
6:35 AM 43.7 °F 39.1 °F 31.1 °F 61% 30.12 in 10.0 mi North 8.1 mph - N/A   Clear
6:55 AM 43.3 °F 38.1 °F 31.1 °F 62% 30.11 in 10.0 mi North 9.2 mph - N/A   Clear
7:15 AM 43.7 °F 39.1 °F 31.3 °F 62% 30.11 in 10.0 mi North 8.1 mph - N/A   Clear
7:35 AM 43.2 °F 37.9 °F 32.0 °F 65% 30.12 in 10.0 mi North 9.2 mph - N/A   Clear
7:55 AM 46.8 °F - 32.4 °F 57% 30.12 in 10.0 mi North 9.2 mph - N/A   Clear
8:15 AM 51.3 °F - 33.8 °F 51% 30.12 in 10.0 mi North 5.8 mph - N/A   Clear
8:35 AM 55.6 °F - 35.4 °F 47% 30.13 in 10.0 mi North 3.5 mph - N/A   Clear
8:55 AM 59.9 °F - 36.7 °F 42% 30.13 in 10.0 mi North 4.6 mph - N/A   Clear
12:35 PM 70.0 °F - 41.9 °F 36% 30.07 in 10.0 mi South 8.1 mph - N/A   Clear
12:55 PM 70.3 °F - 42.3 °F 36% 30.06 in 10.0 mi South 10.4 mph - N/A   Clear
1:15 PM 70.7 °F - 42.1 °F 35% 30.04 in 10.0 mi SSE 8.1 mph - N/A   Clear
1:35 PM 72.1 °F - 41.7 °F 33% 30.03 in 10.0 mi South 8.1 mph - N/A   Clear
1:55 PM 72.5 °F - 41.2 °F 32% 30.02 in 10.0 mi South 8.1 mph - N/A   Clear
2:15 PM 74.3 °F - 40.8 °F 30% 30.00 in 10.0 mi WNW 5.8 mph - N/A   Clear
2:35 PM 74.8 °F - 39.9 °F 28% 29.99 in 10.0 mi South 4.6 mph - N/A   Clear
2:55 PM 74.7 °F - 40.8 °F 30% 29.98 in 10.0 mi SW 6.9 mph 16.1 mph N/A   Clear
3:15 PM 75.0 °F - 41.7 °F 30% 29.97 in 10.0 mi South 8.1 mph 16.1 mph N/A   Clear
3:35 PM 75.7 °F - 41.5 °F 29% 29.96 in 10.0 mi SSW 13.8 mph 18.4 mph N/A   Clear
3:55 PM 75.9 °F - 41.7 °F 29% 29.96 in 10.0 mi South 10.4 mph 17.3 mph N/A   Clear
4:15 PM 76.1 °F - 37.0 °F 24% 29.96 in 10.0 mi WSW 13.8 mph 19.6 mph N/A   Clear
4:35 PM 76.1 °F - 37.0 °F 24% 29.95 in 10.0 mi WSW 12.7 mph 21.9 mph N/A   Clear
4:55 PM 75.6 °F - 37.0 °F 25% 29.95 in 10.0 mi WSW 13.8 mph 19.6 mph N/A   Clear
5:15 PM 74.8 °F - 40.3 °F 29% 29.95 in 10.0 mi SW 13.8 mph 21.9 mph N/A   Clear
5:35 PM 74.3 °F - 40.8 °F 30% 29.95 in 10.0 mi WSW 13.8 mph 23.0 mph N/A   Clear
5:55 PM 73.0 °F - 40.8 °F 31% 29.94 in 10.0 mi WSW 11.5 mph - N/A   Clear
6:15 PM 72.1 °F - 41.0 °F 32% 29.93 in 10.0 mi WSW 6.9 mph - N/A   Clear
6:35 PM 70.0 °F - 41.0 °F 35% 29.92 in 10.0 mi West 5.8 mph - N/A   Clear
7:15 PM 64.0 °F - 40.3 °F 42% 29.92 in 10.0 mi West 4.6 mph - N/A   Clear
7:35 PM 57.9 °F - 39.0 °F 49% 29.91 in 10.0 mi WNW 4.6 mph - N/A   Clear
7:55 PM 58.8 °F - 40.1 °F 50% 29.91 in 10.0 mi Calm Calm - N/A   Clear
8:15 PM 56.3 °F - 39.9 °F 54% 29.91 in 10.0 mi NW 4.6 mph - N/A   Clear
8:35 PM 57.4 °F - 40.6 °F 54% 29.91 in 10.0 mi NNW 4.6 mph - N/A   Scattered Clouds
8:55 PM 58.3 °F - 41.4 °F 53% 29.92 in 10.0 mi NW 5.8 mph - N/A   Mostly Cloudy
9:15 PM 60.4 °F - 41.9 °F 50% 29.92 in 10.0 mi NE 3.5 mph - N/A   Overcast
9:35 PM 60.3 °F - 42.4 °F 52% 29.93 in 10.0 mi NNW 4.6 mph - N/A   Overcast
9:55 PM 60.3 °F - 42.6 °F 52% 29.93 in 10.0 mi NNW 5.8 mph - N/A   Overcast
10:15 PM 60.1 °F - 42.8 °F 53% 29.93 in 10.0 mi NW 4.6 mph - N/A   Overcast
10:35 PM 60.6 °F - 42.4 °F 51% 29.93 in 10.0 mi North 4.6 mph - N/A   Overcast
10:55 PM 59.5 °F - 42.1 °F 52% 29.93 in 10.0 mi NNW 3.5 mph - N/A   Mostly Cloudy
11:15 PM 57.2 °F - 42.6 °F 58% 29.92 in 10.0 mi NW 3.5 mph - N/A   Mostly Cloudy
11:35 PM 58.5 °F - 43.5 °F 58% 29.92 in 10.0 mi Calm Calm - N/A   Overcast
11:55 PM 59.9 °F - 43.7 °F 55% 29.93 in 10.0 mi NW 3.5 mph - N/A   Overcast